Total_Precipitation_Accumulation
1.84 2.16 2.29 2.21 2.20 2.26 2.09 2.03 2.13 2.13 2.12 2.23 2.26 2.23 2.20 2.33 2.53 2.74 2.68 2.85 2.97 3.01 2.98 2.90 2.81 2.84 3.00 2.92 3.06 3.22 3.45 3.70 3.41 3.03 2.88 2.82 2.85 2.70 2.52 2.21 1.93 1.81 1.67
2.10 2.46 2.63 2.43 2.21 2.07 1.89 1.86 1.97 2.15 2.19 2.20 2.21 2.19 2.09 2.20 2.46 2.61 2.71 2.96 3.10 2.98 2.89 2.88 2.75 2.88 2.98 2.96 3.04 3.02 3.11 3.44 3.32 3.08 3.01 3.04 2.94 2.75 2.63 2.44 2.06 1.87 1.88
1.95 2.34 2.40 2.16 1.94 1.89 1.86 1.87 1.97 2.14 2.16 2.15 2.20 2.23 2.30 2.42 2.56 2.68 2.79 2.96 2.94 2.83 2.85 2.78 2.65 2.75 2.69 2.76 2.80 2.82 2.82 2.94 3.14 3.03 2.92 2.99 2.91 2.76 2.68 2.51 2.40 2.48 2.25
1.56 1.90 1.90 1.75 1.70 1.74 1.75 1.78 1.79 1.88 1.93 1.98 2.18 2.38 2.50 2.63 2.72 2.77 2.78 2.74 2.73 2.62 2.51 2.44 2.47 2.60 2.70 2.71 2.61 2.60 2.68 2.82 2.92 2.97 2.94 3.02 3.03 3.04 2.93 2.76 2.75 2.69 2.50
1.52 1.75 1.71 1.64 1.67 1.64 1.61 1.71 1.77 1.83 1.87 2.10 2.25 2.33 2.37 2.40 2.47 2.66 2.63 2.52 2.50 2.38 2.28 2.11 2.15 2.48 2.64 2.62 2.41 2.52 2.60 2.66 2.74 2.88 2.92 3.02 3.10 3.32 3.13 2.83 2.69 2.75 2.59
1.45 1.72 1.68 1.60 1.58 1.50 1.56 1.67 1.78 1.87 2.05 2.23 2.22 2.20 2.16 1.82 1.94 2.10 2.13 2.14 2.19 2.17 2.05 1.98 1.97 2.05 2.08 2.13 2.14 2.17 2.24 2.31 2.52 2.82 2.91 2.90 2.88 2.98 3.11 3.02 2.91 2.82 2.73
1.49 1.72 1.76 1.67 1.63 1.59 1.54 1.70 1.88 2.08 2.26 2.37 2.32 2.25 2.09 1.96 1.86 1.76 1.75 1.81 1.95 1.97 2.00 2.07 1.78 1.59 1.74 1.77 1.92 1.92 1.86 1.96 2.10 2.38 2.57 2.60 2.71 2.72 3.00 3.04 3.10 3.10 3.01
1.45 1.69 1.79 1.77 1.81 1.88 1.90 1.95 2.13 2.36 2.51 2.52 2.48 2.37 2.25 2.13 2.03 1.84 1.82 1.74 1.83 1.86 1.87 1.91 1.86 1.73 1.69 1.81 1.91 1.86 1.71 1.67 1.67 1.64 1.86 2.15 2.42 2.70 2.76 2.83 2.98 3.05 3.05
1.42 1.65 1.80 1.87 1.97 2.00 2.07 2.31 2.49 2.65 2.67 2.62 2.67 2.56 2.43 2.40 2.22 1.87 1.70 1.62 1.77 1.81 1.82 1.77 1.73 1.66 1.73 1.61 1.58 1.61 1.62 1.60 1.43 1.43 1.52 1.74 1.96 2.05 2.27 2.53 2.77 2.76 2.70
1.77 1.86 2.09 2.30 2.48 2.56 2.63 2.71 2.77 2.87 2.80 2.79 2.70 2.68 2.55 2.49 2.37 1.85 1.58 1.50 1.69 1.74 1.81 1.76 1.64 1.49 1.49 1.38 1.35 1.50 1.50 1.50 1.55 1.49 1.40 1.42 1.49 1.65 1.75 1.84 2.17 2.40 2.32
2.20 2.25 2.45 2.79 2.98 2.97 3.04 2.95 2.87 2.85 2.87 2.86 2.74 2.63 2.55 2.45 2.34 1.89 1.69 1.63 1.77 1.87 1.82 1.74 1.67 1.55 1.35 1.32 1.27 1.31 1.39 1.41 1.50 1.56 1.51 1.44 1.52 1.64 1.60 1.58 1.76 2.01 2.10
2.49 2.67 2.92 3.18 3.05 2.97 3.14 3.03 3.02 3.08 3.06 2.95 2.85 2.73 2.72 2.61 2.35 2.00 1.76 1.76 1.84 1.91 1.96 1.92 1.83 1.61 1.36 1.28 1.19 1.17 1.16 1.10 1.12 1.31 1.37 1.33 1.38 1.50 1.58 1.57 1.64 1.72 1.83
2.70 2.86 2.98 3.06 3.19 3.32 3.38 3.25 3.16 3.14 3.08 2.88 2.76 2.58 2.46 2.52 2.51 2.07 1.76 1.77 1.82 1.81 1.96 2.03 1.77 1.51 1.35 1.18 1.17 1.17 1.06 0.96 1.06 1.15 1.17 1.19 1.22 1.34 1.57 1.74 1.82 1.87 1.85
2.58 2.61 2.73 2.90 3.04 3.15 3.37 3.37 3.23 3.05 2.94 2.85 2.79 2.63 2.50 2.48 2.42 2.08 1.75 1.70 1.76 1.72 1.77 1.86 1.71 1.54 1.38 1.23 1.16 1.12 1.05 1.09 1.20 1.21 1.23 1.30 1.34 1.42 1.54 1.62 1.74 1.85 1.83
2.63 2.56 2.50 2.52 2.66 2.81 2.93 3.00 2.93 2.88 2.72 2.59 2.44 2.36 2.31 2.29 2.26 2.04 1.79 1.72 1.80 1.86 1.84 1.83 1.79 1.64 1.50 1.37 1.33 1.36 1.40 1.40 1.35 1.35 1.40 1.42 1.41 1.42 1.47 1.55 1.66 1.75 1.73
2.56 2.45 2.42 2.38 2.45 2.49 2.49 2.44 2.30 2.20 2.04 1.86 1.77 1.70 1.69 1.73 1.86 1.70 1.56 1.61 1.76 1.86 1.74 1.68 1.76 1.74 1.64 1.55 1.50 1.51 1.52 1.48 1.44 1.46 1.44 1.43 1.41 1.41 1.45 1.51 1.54 1.55 1.56
2.44 2.30 2.18 2.09 2.10 2.09 2.13 2.26 2.31 2.08 1.87 1.64 1.49 1.35 1.31 1.40 1.50 1.52 1.50 1.54 1.65 1.66 1.51 1.52 1.62 1.67 1.61 1.58 1.52 1.50 1.45 1.50 1.55 1.49 1.44 1.46 1.46 1.45 1.48 1.52 1.52 1.54 1.52
2.29 2.23 2.10 2.04 2.03 2.03 2.11 2.18 2.28 2.27 2.00 1.61 1.46 1.33 1.15 1.10 1.12 1.19 1.26 1.32 1.37 1.39 1.34 1.38 1.43 1.50 1.53 1.56 1.57 1.57 1.51 1.52 1.55 1.55 1.51 1.50 1.51 1.47 1.48 1.48 1.44 1.46 1.56
2.13 2.08 2.01 2.01 1.97 1.97 2.10 2.13 2.12 2.16 2.02 1.78 1.52 1.30 1.14 1.01 1.00 1.08 1.07 1.06 1.17 1.21 1.19 1.23 1.27 1.30 1.36 1.42 1.44 1.50 1.51 1.50 1.50 1.54 1.50 1.49 1.53 1.53 1.53 1.51 1.51 1.55 1.57
2.05 1.95 1.83 1.80 1.77 1.71 1.74 1.84 1.87 1.94 1.89 1.79 1.63 1.34 1.10 0.98 0.98 1.04 1.02 1.09 1.18 1.20 1.18 1.22 1.19 1.19 1.24 1.32 1.40 1.48 1.51 1.53 1.55 1.55 1.54 1.55 1.56 1.58 1.57 1.57 1.59 1.61 1.62
1.96 1.76 1.51 1.37 1.44 1.53 1.63 1.73 1.75 1.78 1.81 1.77 1.57 1.31 1.09 0.93 0.98 1.09 1.16 1.17 1.16 1.17 1.14 1.14 1.12 1.13 1.16 1.24 1.33 1.40 1.47 1.54 1.53 1.54 1.60 1.59 1.53 1.53 1.53 1.56 1.56 1.59 1.64
1.82 1.67 1.50 1.37 1.40 1.47 1.56 1.71 1.73 1.67 1.64 1.65 1.56 1.33 1.18 1.02 1.04 1.11 1.14 1.12 1.10 1.14 1.11 1.09 1.05 1.08 1.13 1.21 1.31 1.36 1.42 1.44 1.46 1.51 1.54 1.56 1.57 1.55 1.53 1.57 1.56 1.56 1.58
1.77 1.71 1.59 1.50 1.55 1.59 1.61 1.63 1.60 1.55 1.54 1.51 1.46 1.36 1.27 1.22 1.21 1.23 1.21 1.18 1.17 1.15 1.14 1.14 1.10 1.08 1.13 1.21 1.26 1.31 1.37 1.36 1.35 1.37 1.45 1.53 1.56 1.58 1.62 1.64 1.59 1.55 1.53
1.58 1.62 1.55 1.47 1.49 1.55 1.52 1.56 1.51 1.47 1.43 1.39 1.35 1.33 1.29 1.29 1.28 1.24 1.24 1.21 1.16 1.05 0.98 0.99 1.02 1.05 1.08 1.10 1.09 1.10 1.13 1.17 1.17 1.20 1.28 1.38 1.44 1.53 1.61 1.65 1.62 1.58 1.65
1.49 1.56 1.56 1.55 1.54 1.55 1.57 1.61 1.54 1.47 1.43 1.39 1.38 1.36 1.33 1.29 1.25 1.27 1.26 1.17 1.07 1.02 0.97 0.99 1.04 1.01 0.95 0.95 0.96 0.96 1.06 1.07 1.03 1.07 1.18 1.35 1.43 1.55 1.68 1.71 1.70 1.72 1.82
1.39 1.42 1.45 1.47 1.47 1.49 1.49 1.53 1.53 1.44 1.37 1.28 1.26 1.27 1.20 1.15 1.13 1.10 1.07 1.04 1.05 1.06 1.03 1.02 1.03 1.03 0.99 0.94 0.95 1.03 1.03 0.97 0.98 1.06 1.05 1.11 1.27 1.39 1.50 1.57 1.55 1.64 1.76